Roda de Ter - l'Esquerda





Hora UTC 12:55
Temperatura 29.4 ºC
Humitat 48.0 %
Pressió 1013.4 hPa
Pluja 0.0 mm
Velocitat vent 0.0 km/h
Direcció vent E

Dades diàries 2021-06-19



Hora UTC (hivern +1h; estiu +2h)
Temperatura (ºC) Humitat (%) Pressió (hPa) Velocitat vent (km/h) Precipitació (mm)
Hora UTC Aire Humitat Pressió Vel. Dir. Vel. Max Dir. Intent. màx 5 min.
00:05 17.2 85.0 1015.9 0.0 SW 0.0 0.0
00:05 17.2 85.0 1015.8 0.0 SW 1.6 0.0
00:15 17.2 86.0 1015.5 1.6 SW 3.2 0.0
00:20 17.1 86.0 1015.5 0.0 SW 3.2 0.0
00:25 16.9 86.0 1015.7 1.6 SSW 3.2 0.0
00:30 16.7 86.0 1015.7 0.0 SSW 3.2 0.0
00:35 16.8 87.0 1015.7 0.0 SSW 3.2 0.0
00:40 16.7 87.0 1015.6 1.6 SSW 1.6 0.0
00:45 16.6 87.0 1015.5 0.0 SSW 1.6 0.0
00:50 16.6 87.0 1015.3 1.6 SSW 1.6 0.0
00:55 16.5 87.0 1015.3 4.8 SSW 4.8 0.0
01:00 16.3 87.0 1015.4 3.2 S 6.4 0.0
01:05 16.3 88.0 1015.3 1.6 S 6.4 0.0
01:10 16.2 87.0 1015.3 1.6 S 3.2 0.0
01:15 16.0 88.0 1015.3 0.0 S 3.2 0.0
01:20 16.1 88.0 1015.1 0.0 S 1.6 0.0
01:25 15.9 88.0 1014.9 0.0 S 3.2 0.0
01:30 16.0 88.0 1014.8 0.0 S 3.2 0.0
01:35 15.9 88.0 1014.9 1.6 S 1.6 0.0
01:40 15.7 88.0 1014.9 1.6 S 3.2 0.0
01:45 15.6 89.0 1014.9 3.2 S 3.2 0.0
01:50 15.6 89.0 1015.0 1.6 S 3.2 0.0
01:55 15.5 89.0 1014.9 0.0 S 3.2 0.0
02:00 15.4 90.0 1015.0 0.0 S 3.2 0.0
02:05 15.4 90.0 1015.1 0.0 S 1.6 0.0
02:10 15.2 90.0 1015.0 0.0 S 1.6 0.0
02:15 15.2 90.0 1014.9 0.0 S 1.6 0.0
02:20 15.4 90.0 1014.6 1.6 S 1.6 0.0
02:25 15.3 90.0 1014.7 0.0 S 1.6 0.0
02:30 15.2 90.0 1014.7 0.0 S 1.6 0.0
02:35 15.1 90.0 1014.6 0.0 S 1.6 0.0
02:40 15.1 91.0 1014.6 1.6 S 1.6 0.0
02:45 15.1 91.0 1014.6 0.0 S 1.6 0.0
02:50 14.9 91.0 1014.8 1.6 S 3.2 0.0
02:55 14.6 91.0 1014.8 0.0 S 4.8 0.0
03:00 14.7 91.0 1014.9 3.2 S 4.8 0.0
03:05 14.8 91.0 1014.9 3.2 S 4.8 0.0
03:10 14.9 91.0 1014.7 1.6 S 4.8 0.0
03:15 15.0 91.0 1014.8 1.6 S 4.8 0.0
03:20 14.9 91.0 1015.1 1.6 S 3.2 0.0
03:25 14.9 91.0 1015.1 4.8 S 4.8 0.0
03:30 14.9 91.0 1015.2 3.2 S 4.8 0.0
03:35 14.9 92.0 1015.1 0.0 S 4.8 0.0
03:40 15.0 92.0 1015.0 0.0 S 3.2 0.0
03:45 15.0 91.0 1015.1 1.6 S 4.8 0.0
03:50 14.7 91.0 1015.2 0.0 S 4.8 0.0
03:55 14.5 91.0 1015.4 3.2 S 3.2 0.0
04:00 14.4 91.0 1015.5 0.0 S 3.2 0.0
04:05 14.3 91.0 1015.4 0.0 S 1.6 0.0
04:10 14.2 91.0 1015.6 0.0 S 1.6 0.0
04:15 14.3 91.0 1015.7 0.0 S 1.6 0.0
04:20 14.3 92.0 1015.5 1.6 S 1.6 0.0
04:25 14.4 92.0 1015.6 1.6 S 1.6 0.0
04:30 14.6 92.0 1015.3 1.6 ESE 4.8 0.0
04:35 14.6 92.0 1015.4 1.6 ESE 4.8 0.0
04:40 14.4 91.0 1015.7 1.6 ESE 3.2 0.0
04:45 14.4 92.0 1015.8 0.0 ESE 3.2 0.0
04:50 14.4 92.0 1016.0 1.6 ESE 3.2 0.0
04:55 14.4 92.0 1016.2 0.0 ESE 3.2 0.0
05:00 14.5 92.0 1016.1 0.0 ESE 1.6 0.0
05:05 14.6 92.0 1016.2 1.6 ESE 1.6 0.0
05:10 14.6 92.0 1016.3 1.6 ESE 3.2 0.0
05:15 14.7 92.0 1016.2 0.0 ESE 3.2 0.0
05:20 14.8 92.0 1015.8 0.0 ESE 1.6 0.0
05:25 15.1 92.0 1016.0 1.6 ESE 3.2 0.0
05:30 15.2 92.0 1015.5 3.2 ESE 3.2 0.0
05:35 15.4 92.0 1015.3 0.0 ESE 3.2 0.0
05:40 15.6 92.0 1015.1 0.0 ESE 3.2 0.0
05:45 15.8 92.0 1014.9 0.0 ESE 3.2 0.0
05:50 15.9 92.0 1015.1 0.0 N 4.8 0.0
05:55 16.0 92.0 1015.0 3.2 N 4.8 0.0
06:00 16.1 92.0 1014.8 0.0 N 4.8 0.0
06:05 16.3 91.0 1014.7 4.8 N 4.8 0.0
06:10 16.4 91.0 1014.7 1.6 N 4.8 0.0
06:15 16.8 91.0 1014.5 0.0 N 4.8 0.0
06:20 17.1 91.0 1014.5 1.6 N 4.8 0.0
06:25 17.4 90.0 1014.4 1.6 N 6.4 0.0
06:30 17.5 88.0 1014.3 3.2 N 6.4 0.0
06:35 17.6 88.0 1014.3 0.0 N 8.0 0.0
06:40 17.9 87.0 1014.5 4.8 N 8.0 0.0
06:45 18.2 86.0 1014.7 6.4 N 9.7 0.0
06:50 18.4 85.0 1014.7 4.8 N 12.9 0.0
06:55 18.8 84.0 1014.6 6.4 N 12.9 0.0
07:00 19.2 83.0 1014.6 4.8 N 6.4 0.0
07:05 19.8 83.0 1014.8 6.4 SSE 6.4 0.0
07:10 20.4 81.0 1014.9 1.6 N 6.4 0.0
07:15 20.9 79.0 1015.1 0.0 SSW 6.4 0.0
07:20 21.4 77.0 1015.1 1.6 N 6.4 0.0
07:25 21.7 75.0 1015.0 1.6 N 4.8 0.0
07:30 21.7 73.0 1015.2 3.2 NNW 6.4 0.0
07:35 22.1 75.0 1015.3 3.2 NNW 6.4 0.0
07:40 22.1 74.0 1015.2 0.0 NW 9.7 0.0
07:40 21.9 73.0 1015.2 4.8 N 9.7 0.0
07:50 22.0 75.0 1015.2 3.2 WNW 9.7 0.0
07:55 22.6 72.0 1015.1 3.2 NNW 9.7 0.0
08:00 23.2 72.0 1015.3 3.2 NNW 8.0 0.0
08:05 23.4 69.0 1015.0 4.8 NW 9.7 0.0
08:10 23.3 67.0 1015.0 4.8 NW 12.9 0.0
08:15 23.3 65.0 1015.1 3.2 NNW 12.9 0.0
08:20 23.5 65.0 1015.2 1.6 NW 9.7 0.0
08:25 23.1 66.0 1015.3 4.8 NE 12.9 0.0
08:30 23.2 69.0 1015.2 3.2 WNW 12.9 0.0
08:35 23.3 64.0 1014.7 3.2 NE 8.0 0.0
08:40 23.2 65.0 1014.7 4.8 N 8.0 0.0
08:40 23.4 65.0 1014.5 1.6 NE 8.0 0.0
08:50 24.2 64.0 1014.5 1.6 ENE 8.0 0.0
08:55 24.9 60.0 1014.5 1.6 E 8.0 0.0
09:00 25.7 59.0 1014.2 3.2 ESE 6.4 0.0
09:05 25.6 61.0 1014.3 6.4 ESE 9.7 0.0
09:10 25.2 61.0 1014.3 3.2 E 9.7 0.0
09:15 25.3 60.0 1014.2 3.2 NE 6.4 0.0
09:20 25.5 59.0 1014.2 3.2 NE 6.4 0.0
09:25 25.2 59.0 1014.3 3.2 NNE 6.4 0.0
09:30 25.4 60.0 1014.4 0.0 NW 4.8 0.0
09:35 25.8 60.0 1014.3 1.6 WSW 4.8 0.0
09:40 26.1 59.0 1014.2 0.0 WNW 4.8 0.0
09:45 26.4 59.0 1014.2 6.4 S 6.4 0.0
09:50 26.7 57.0 1014.1 4.8 WNW 6.4 0.0
09:55 26.7 56.0 1014.0 4.8 WSW 6.4 0.0
10:00 26.8 55.0 1014.0 3.2 SW 6.4 0.0
10:05 27.0 55.0 1014.1 3.2 SSW 6.4 0.0
10:10 26.9 54.0 1014.2 3.2 SSW 6.4 0.0
10:15 27.1 54.0 1014.1 1.6 SW 6.4 0.0
10:20 27.5 53.0 1014.0 0.0 SSE 6.4 0.0
10:25 27.7 55.0 1013.9 1.6 SSE 6.4 0.0
10:30 27.6 52.0 1014.0 3.2 ESE 8.0 0.0
10:35 27.3 52.0 1014.0 3.2 ESE 6.4 0.0
10:40 27.3 53.0 1014.0 1.6 ESE 6.4 0.0
10:45 26.8 54.0 1013.9 0.0 ESE 6.4 0.0
10:50 27.2 51.0 1013.9 3.2 ESE 4.8 0.0
10:55 27.9 52.0 1013.8 3.2 SE 6.4 0.0
11:00 28.3 53.0 1013.8 0.0 SE 6.4 0.0
11:05 28.1 51.0 1014.0 0.0 SSE 4.8 0.0
11:10 28.8 49.0 1013.9 4.8 S 4.8 0.0
11:15 29.3 48.0 1013.9 0.0 SSE 4.8 0.0
11:20 29.2 46.0 1013.6 1.6 SSE 4.8 0.0
11:25 29.4 46.0 1013.7 3.2 SE 4.8 0.0
11:30 29.9 48.0 1013.7 1.6 ENE 4.8 0.0
11:35 29.4 44.0 1013.8 3.2 SE 4.8 0.0
11:40 29.4 47.0 1013.6 4.8 ENE 6.4 0.0
11:45 29.2 43.0 1013.7 0.0 E 6.4 0.0
11:50 28.7 44.0 1013.6 0.0 NNE 6.4 0.0
11:55 28.6 49.0 1013.6 3.2 NE 6.4 0.0
12:00 28.6 49.0 1013.4 3.2 NE 4.8 0.0
12:05 28.8 48.0 1013.3 1.6 NE 3.2 0.0
12:10 29.7 48.0 1013.2 0.0 E 3.2 0.0
12:15 29.4 45.0 1013.3 0.0 E 4.8 0.0
12:20 29.5 49.0 1013.3 1.6 E 6.4 0.0
12:25 29.5 45.0 1013.4 3.2 E 6.4 0.0
12:30 29.9 47.0 1013.4 3.2 E 4.8 0.0
12:35 29.9 42.0 1013.4 1.6 E 4.8 0.0
12:40 29.5 43.0 1013.3 1.6 E 4.8 0.0
12:45 29.7 44.0 1013.3 1.6 E 4.8 0.0
12:50 29.4 44.0 1013.2 1.6 E 3.2 0.0
12:55 29.4 48.0 1013.4 0.0 E 3.2 0.0
Màxima 30.1 92.0 1016.3 6.4 S 12.9 0.0
Mínima 14.2 42.0 1013.2
Total 0.0